RCH3811 EGUN-ENOL

Flight info

Callsign RCH3811
Flight time 1h 49m
Altitude 35000
Route NUGTU2 NUGTU NALAX ROPAL VAXIT KARLI BIVKI ROPNO MAMIP PIGED NELSU NELS1N
Aircraft K35R/H-SDE1E2E3FGHIJ2J3J4J5M1RWXY/LB1D1

Departure

Time 2026-05-05 15:36
Airport RAF Mildenhall (EGUN)

Arrival

Time 2026-05-05 17:26
Airport Ørland Airport (ENOL)
Time Latitude Longitude Altitude Speed Heading
2026-05-05 15:13 52.35994 0.46645 50 ft 0 kts 336°
2026-05-05 15:33 52.35996 0.46644 50 ft 2 kts 336°
2026-05-05 15:33 52.36035 0.46616 50 ft 10 kts 338°
2026-05-05 15:33 52.36116 0.46636 50 ft 13 kts 21°
2026-05-05 15:33 52.36200 0.46689 50 ft 13 kts 17°
2026-05-05 15:34 52.36286 0.46713 50 ft 12 kts
2026-05-05 15:34 52.36364 0.46724 50 ft 5 kts
2026-05-05 15:34 52.36365 0.46724 50 ft 0 kts
2026-05-05 15:35 52.36381 0.46725 50 ft 6 kts
2026-05-05 15:35 52.36441 0.46735 46 ft 8 kts 15°
2026-05-05 15:36 52.36461 0.46784 52 ft 5 kts 85°
2026-05-05 15:36 52.36441 0.46927 51 ft 36 kts 103°
2026-05-05 15:36 52.36296 0.47939 50 ft 147 kts 102°
2026-05-05 15:36 52.35998 0.49841 829 ft 171 kts 102°
2026-05-05 15:37 52.35679 0.51708 2481 ft 171 kts 102°
2026-05-05 15:37 52.35330 0.53626 3779 ft 188 kts 109°
2026-05-05 15:37 52.34463 0.55589 4198 ft 240 kts 138°
2026-05-05 15:37 52.32872 0.56832 4799 ft 267 kts 170°
2026-05-05 15:38 52.31029 0.56618 6231 ft 269 kts 199°
2026-05-05 15:38 52.29419 0.55080 7622 ft 272 kts 224°
2026-05-05 15:38 52.28267 0.52573 8199 ft 280 kts 248°
2026-05-05 15:38 52.28001 0.49514 9575 ft 273 kts 276°
2026-05-05 15:39 52.28553 0.46508 10436 ft 294 kts 298°
2026-05-05 15:39 52.29938 0.43743 10609 ft 339 kts 320°
2026-05-05 15:39 52.32072 0.41907 11349 ft 353 kts 341°
2026-05-05 15:39 52.34451 0.40801 12464 ft 363 kts 343°
2026-05-05 15:40 52.36921 0.39573 13617 ft 371 kts 339°
2026-05-05 15:40 52.39347 0.38068 14650 ft 376 kts 335°
2026-05-05 15:40 52.41753 0.36295 15627 ft 382 kts 333°
2026-05-05 15:40 52.44144 0.34328 16648 ft 386 kts 330°
2026-05-05 15:41 52.46499 0.32275 17546 ft 392 kts 330°
2026-05-05 15:41 52.48901 0.30097 18468 ft 397 kts 329°
2026-05-05 15:41 52.51321 0.27857 19285 ft 401 kts 328°
2026-05-05 15:41 52.53766 0.25585 20062 ft 406 kts 328°
2026-05-05 15:42 52.56242 0.23276 20804 ft 411 kts 328°
2026-05-05 15:42 52.58742 0.20943 21634 ft 415 kts 328°
2026-05-05 15:42 52.61260 0.18593 22454 ft 420 kts 328°
2026-05-05 15:42 52.63820 0.16224 23280 ft 425 kts 329°
2026-05-05 15:43 52.66545 0.14217 23985 ft 434 kts 339°
2026-05-05 15:43 52.69534 0.13261 24675 ft 444 kts 354°
2026-05-05 15:43 52.72652 0.13534 25347 ft 453 kts
2026-05-05 15:43 52.75777 0.14561 26035 ft 461 kts 11°
2026-05-05 15:44 52.78913 0.15852 26714 ft 467 kts 12°
2026-05-05 15:44 52.82077 0.17175 27394 ft 473 kts 12°
2026-05-05 15:44 52.85302 0.18452 28091 ft 479 kts 11°
2026-05-05 15:44 52.88575 0.19664 28759 ft 484 kts 11°
2026-05-05 15:45 52.91892 0.20829 29436 ft 490 kts 10°
2026-05-05 15:45 52.95217 0.21964 30069 ft 496 kts 10°
2026-05-05 15:45 52.98595 0.23105 30654 ft 498 kts 10°
2026-05-05 15:45 53.01990 0.24251 31464 ft 495 kts 10°
2026-05-05 15:46 53.05305 0.25376 32298 ft 490 kts 10°
2026-05-05 15:46 53.08638 0.26510 33150 ft 486 kts 10°
2026-05-05 15:46 53.11938 0.27635 33808 ft 484 kts 10°
2026-05-05 15:46 53.15224 0.28760 34186 ft 481 kts 10°
2026-05-05 15:47 53.18496 0.29883 34546 ft 479 kts 10°
2026-05-05 15:47 53.20661 0.30626 34787 ft 479 kts 10°
2026-05-05 15:47 53.25042 0.32130 34963 ft 479 kts 11°
2026-05-05 15:48 53.31518 0.34365 35001 ft 474 kts 11°
2026-05-05 15:48 53.36878 0.36221 34999 ft 473 kts 11°
2026-05-05 15:49 53.43327 0.38491 35006 ft 473 kts 12°
2026-05-05 15:49 53.49432 0.42468 35003 ft 474 kts 32°
2026-05-05 15:49 53.52042 0.45843 35004 ft 474 kts 44°
2026-05-05 15:50 53.54268 0.49919 35007 ft 474 kts 51°
2026-05-05 15:50 53.58278 0.58713 34999 ft 474 kts 53°
2026-05-05 15:51 53.62335 0.67468 34996 ft 474 kts 51°
2026-05-05 15:51 53.66509 0.76065 34993 ft 473 kts 50°
2026-05-05 15:52 53.70691 0.84554 34993 ft 473 kts 50°
2026-05-05 15:52 53.74895 0.93115 34991 ft 473 kts 50°
2026-05-05 15:53 53.79086 1.01687 34989 ft 473 kts 50°
2026-05-05 15:53 53.83270 1.10281 34987 ft 473 kts 50°
2026-05-05 15:54 53.87452 1.18898 34985 ft 473 kts 50°
2026-05-05 15:54 53.91627 1.27538 34986 ft 473 kts 51°
2026-05-05 15:55 53.95801 1.36209 34987 ft 473 kts 51°
2026-05-05 15:55 53.99940 1.44835 34966 ft 474 kts 51°
2026-05-05 15:56 54.04103 1.53538 34982 ft 474 kts 51°
2026-05-05 15:56 54.08233 1.62310 34973 ft 474 kts 51°
2026-05-05 15:57 54.12368 1.71095 34982 ft 475 kts 51°
2026-05-05 15:57 54.16516 1.79877 34984 ft 476 kts 51°
2026-05-05 15:58 54.20675 1.88696 34970 ft 477 kts 51°
2026-05-05 15:58 54.24830 1.97535 34984 ft 477 kts 51°
2026-05-05 15:59 54.28993 2.06429 34966 ft 478 kts 51°
2026-05-05 15:59 54.33144 2.15330 34986 ft 478 kts 51°
2026-05-05 16:00 54.37265 2.24196 34969 ft 479 kts 51°
2026-05-05 16:00 54.41414 2.33150 34967 ft 479 kts 51°
2026-05-05 16:01 54.45565 2.42145 34974 ft 480 kts 51°
2026-05-05 16:01 54.49706 2.51151 34976 ft 480 kts 51°
2026-05-05 16:02 54.53847 2.60184 34966 ft 481 kts 51°
2026-05-05 16:02 54.57969 2.69263 34969 ft 481 kts 51°
2026-05-05 16:03 54.62071 2.78403 34974 ft 482 kts 51°
2026-05-05 16:03 54.66186 2.87531 34973 ft 482 kts 51°
2026-05-05 16:04 54.70316 2.96683 34976 ft 483 kts 51°
2026-05-05 16:04 54.74453 3.05872 34974 ft 484 kts 51°
2026-05-05 16:05 54.78584 3.15088 34970 ft 484 kts 51°
2026-05-05 16:05 54.82707 3.24327 34969 ft 485 kts 51°
2026-05-05 16:06 54.86809 3.33551 34971 ft 485 kts 51°
2026-05-05 16:06 54.90929 3.42849 34969 ft 486 kts 51°
2026-05-05 16:07 54.95047 3.52172 34974 ft 486 kts 51°
2026-05-05 16:07 54.99168 3.61543 34973 ft 487 kts 51°
2026-05-05 16:08 55.03284 3.70942 34969 ft 488 kts 51°
2026-05-05 16:08 55.07390 3.80356 34971 ft 488 kts 52°
2026-05-05 16:09 55.11473 3.89810 34966 ft 488 kts 49°
2026-05-05 16:09 55.13820 3.94078 34968 ft 485 kts 38°
2026-05-05 16:09 55.16581 3.97432 34965 ft 481 kts 26°
2026-05-05 16:10 55.22712 4.01773 34970 ft 478 kts 15°
2026-05-05 16:10 55.28990 4.05632 34968 ft 479 kts 17°
2026-05-05 16:11 55.35200 4.09919 34966 ft 480 kts 19°
2026-05-05 16:12 55.47538 4.19033 34974 ft 481 kts 19°
2026-05-05 16:13 55.62968 4.30517 34975 ft 481 kts 19°
2026-05-05 16:13 55.69105 4.35108 34977 ft 481 kts 19°
2026-05-05 16:14 55.81439 4.44381 34979 ft 481 kts 19°
2026-05-05 16:15 55.93748 4.53722 34982 ft 481 kts 19°
2026-05-05 16:16 56.06054 4.63161 34985 ft 481 kts 19°
2026-05-05 16:17 56.15241 4.70204 34993 ft 481 kts 19°
2026-05-05 16:18 56.24465 4.77314 34999 ft 481 kts 19°
2026-05-05 16:19 56.33694 4.84472 35003 ft 481 kts 19°
2026-05-05 16:19 56.42907 4.91653 35008 ft 481 kts 19°
2026-05-05 16:20 56.55115 5.01387 35011 ft 483 kts 23°
2026-05-05 16:22 56.69598 5.17110 35017 ft 485 kts 27°
2026-05-05 16:23 56.81161 5.29864 35018 ft 486 kts 27°
2026-05-05 16:23 56.89833 5.39445 35014 ft 486 kts 27°
2026-05-05 16:24 56.95615 5.45867 35018 ft 486 kts 27°
2026-05-05 16:24 57.01460 5.51523 35018 ft 479 kts 15°
2026-05-05 16:25 57.04700 5.53523 35019 ft 475 kts 11°
2026-05-05 16:25 57.14261 5.58285 35015 ft 474 kts
2026-05-05 16:26 57.26981 5.64928 35018 ft 475 kts 11°
2026-05-05 16:27 57.33326 5.68337 35013 ft 475 kts 11°
2026-05-05 16:27 57.39639 5.71746 35018 ft 475 kts 10°
2026-05-05 16:28 57.45990 5.75190 35016 ft 475 kts 10°
2026-05-05 16:28 57.52333 5.78634 35018 ft 475 kts 10°
2026-05-05 16:29 57.58684 5.82092 35015 ft 475 kts 10°
2026-05-05 16:29 57.65034 5.85566 35018 ft 475 kts 10°
2026-05-05 16:30 57.71390 5.89054 35019 ft 476 kts 10°
2026-05-05 16:30 57.77751 5.92547 35016 ft 476 kts 10°
2026-05-05 16:31 57.84103 5.96088 35011 ft 476 kts 10°
2026-05-05 16:31 57.90423 5.99627 35011 ft 476 kts 10°
2026-05-05 16:32 57.96778 6.03174 35012 ft 476 kts 10°
2026-05-05 16:32 58.03122 6.06716 35015 ft 476 kts 10°
2026-05-05 16:33 58.09467 6.10282 35002 ft 476 kts 10°
2026-05-05 16:33 58.15809 6.13854 35007 ft 476 kts 10°
2026-05-05 16:34 58.21086 6.16836 35004 ft 476 kts 10°
2026-05-05 16:34 58.27433 6.20435 35011 ft 476 kts 10°
2026-05-05 16:35 58.33774 6.24047 35008 ft 476 kts 10°
2026-05-05 16:35 58.40114 6.27772 35001 ft 476 kts 11°
2026-05-05 16:36 58.46496 6.31572 34999 ft 485 kts 11°
2026-05-05 16:36 58.52954 6.35430 35001 ft 486 kts 11°
2026-05-05 16:37 58.59419 6.39307 34995 ft 487 kts 11°
2026-05-05 16:37 58.65898 6.43195 34994 ft 487 kts 11°
2026-05-05 16:38 58.72369 6.47091 34993 ft 487 kts 11°
2026-05-05 16:38 58.78848 6.51008 34994 ft 488 kts 11°
2026-05-05 16:39 58.85328 6.54947 34995 ft 488 kts 11°
2026-05-05 16:39 58.91818 6.58906 35020 ft 490 kts 11°
2026-05-05 16:40 58.98316 6.62879 34995 ft 490 kts 10°
2026-05-05 16:40 59.04774 6.66841 34996 ft 490 kts 11°
2026-05-05 16:41 59.11273 6.70849 34995 ft 490 kts 11°
2026-05-05 16:41 59.17774 6.74901 34993 ft 491 kts 11°
2026-05-05 16:42 59.24283 6.78976 34988 ft 491 kts 11°
2026-05-05 16:42 59.30785 6.83047 34983 ft 491 kts 11°
2026-05-05 16:43 59.37320 6.86945 34978 ft 490 kts
2026-05-05 16:43 59.43865 6.90654 34972 ft 490 kts
2026-05-05 16:44 59.50423 6.94368 34968 ft 490 kts
2026-05-05 16:44 59.56977 6.98118 34968 ft 491 kts
2026-05-05 16:45 59.63481 7.01861 34959 ft 491 kts
2026-05-05 16:45 59.70053 7.05656 34959 ft 492 kts
2026-05-05 16:46 59.76634 7.09475 34963 ft 493 kts
2026-05-05 16:46 59.83222 7.13317 34952 ft 493 kts
2026-05-05 16:47 59.89817 7.17177 34951 ft 494 kts
2026-05-05 16:47 59.96362 7.21027 34946 ft 494 kts
2026-05-05 16:48 60.03005 7.24945 34945 ft 495 kts
2026-05-05 16:48 60.09568 7.28830 34942 ft 495 kts
2026-05-05 16:49 60.16177 7.32790 34938 ft 496 kts
2026-05-05 16:49 60.22786 7.36773 34935 ft 496 kts
2026-05-05 16:50 60.29395 7.40756 34932 ft 495 kts
2026-05-05 16:50 60.35998 7.44738 34929 ft 495 kts
2026-05-05 16:51 60.42593 7.48722 34921 ft 495 kts
2026-05-05 16:51 60.49191 7.52732 34918 ft 495 kts
2026-05-05 16:52 60.55781 7.56752 34918 ft 494 kts 10°
2026-05-05 16:52 60.62327 7.60757 34912 ft 494 kts 10°
2026-05-05 16:53 60.68911 7.64809 34911 ft 493 kts 10°
2026-05-05 16:53 60.75484 7.68875 34907 ft 493 kts 10°
2026-05-05 16:54 60.82057 7.72953 34900 ft 493 kts 10°
2026-05-05 16:54 60.88616 7.77105 34901 ft 495 kts 12°
2026-05-05 16:55 60.95098 7.82027 34907 ft 498 kts 15°
2026-05-05 16:55 61.01543 7.87278 34904 ft 498 kts 15°
2026-05-05 16:56 61.07985 7.92504 34914 ft 497 kts 15°
2026-05-05 16:56 61.14403 7.97674 34912 ft 497 kts 15°
2026-05-05 16:57 61.20863 8.02886 34920 ft 498 kts 15°
2026-05-05 16:57 61.27308 8.08107 34917 ft 498 kts 15°
2026-05-05 16:58 61.33777 8.13364 34923 ft 498 kts 16°
2026-05-05 16:58 61.40221 8.18632 34921 ft 498 kts 16°
2026-05-05 16:59 61.46670 8.23933 34926 ft 498 kts 16°
2026-05-05 16:59 61.53115 8.29252 34924 ft 497 kts 16°
2026-05-05 17:00 61.59540 8.34574 34920 ft 498 kts 16°
2026-05-05 17:00 61.65987 8.39952 34919 ft 498 kts 17°
2026-05-05 17:01 61.72415 8.45392 34925 ft 498 kts 17°
2026-05-05 17:01 61.78854 8.50839 34915 ft 498 kts 17°
2026-05-05 17:02 61.85280 8.56270 34911 ft 498 kts 17°
2026-05-05 17:02 61.91677 8.61688 34908 ft 498 kts 17°
2026-05-05 17:03 61.98156 8.67143 34909 ft 497 kts 17°
2026-05-05 17:03 62.04558 8.72410 34908 ft 497 kts 16°
2026-05-05 17:04 62.10995 8.77688 34908 ft 497 kts 16°
2026-05-05 17:04 62.17466 8.83023 34908 ft 497 kts 17°
2026-05-05 17:05 62.23917 8.88372 34905 ft 496 kts 17°
2026-05-05 17:05 62.30357 8.93738 34609 ft 496 kts 17°
2026-05-05 17:06 62.33572 8.96422 34160 ft 497 kts 17°
2026-05-05 17:06 62.36793 8.99121 33462 ft 495 kts 17°
2026-05-05 17:06 62.40003 9.01821 32756 ft 495 kts 17°
2026-05-05 17:06 62.43218 9.04528 32082 ft 494 kts 16°
2026-05-05 17:07 62.46490 9.06670 31121 ft 485 kts
2026-05-05 17:07 62.49799 9.07654 29563 ft 477 kts 358°
2026-05-05 17:07 62.53059 9.07584 28628 ft 466 kts 353°
2026-05-05 17:07 62.56291 9.07342 27944 ft 460 kts 354°
2026-05-05 17:08 62.59477 9.07290 27284 ft 455 kts 356°
2026-05-05 17:08 62.62635 9.07474 26627 ft 450 kts 359°
2026-05-05 17:08 62.65703 9.07829 25984 ft 444 kts
2026-05-05 17:08 62.68773 9.08294 25354 ft 438 kts
2026-05-05 17:09 62.71786 9.08801 24728 ft 432 kts
2026-05-05 17:09 62.74764 9.09319 24109 ft 426 kts
2026-05-05 17:09 62.77688 9.09830 23490 ft 419 kts
2026-05-05 17:09 62.80579 9.10335 22770 ft 414 kts
2026-05-05 17:10 62.83437 9.10828 22139 ft 410 kts
2026-05-05 17:10 62.86268 9.11319 21527 ft 406 kts
2026-05-05 17:10 62.89070 9.11802 20953 ft 402 kts
2026-05-05 17:10 62.91856 9.12286 20354 ft 399 kts
2026-05-05 17:11 62.94615 9.12759 19782 ft 397 kts
2026-05-05 17:11 62.97364 9.13225 19206 ft 394 kts
2026-05-05 17:11 63.00085 9.13694 18634 ft 391 kts
2026-05-05 17:11 63.02790 9.14162 18045 ft 388 kts
2026-05-05 17:12 63.05471 9.14627 17419 ft 385 kts
2026-05-05 17:12 63.08133 9.15088 16844 ft 382 kts
2026-05-05 17:12 63.10779 9.15550 16285 ft 379 kts
2026-05-05 17:12 63.13398 9.16009 15725 ft 376 kts
2026-05-05 17:13 63.15970 9.16457 15182 ft 373 kts
2026-05-05 17:13 63.18549 9.16906 14629 ft 370 kts
2026-05-05 17:13 63.21106 9.17348 14083 ft 368 kts
2026-05-05 17:13 63.23651 9.17790 13526 ft 366 kts
2026-05-05 17:14 63.26184 9.18244 12936 ft 362 kts
2026-05-05 17:14 63.28683 9.18695 12392 ft 359 kts
2026-05-05 17:14 63.31170 9.19138 11864 ft 357 kts
2026-05-05 17:14 63.33630 9.19575 11349 ft 354 kts
2026-05-05 17:15 63.36082 9.20004 10983 ft 352 kts
2026-05-05 17:15 63.38509 9.20430 10851 ft 347 kts
2026-05-05 17:15 63.40833 9.20858 10740 ft 322 kts
2026-05-05 17:15 63.42991 9.21259 10632 ft 301 kts
2026-05-05 17:16 63.44987 9.21622 10518 ft 283 kts
2026-05-05 17:16 63.46924 9.21969 10319 ft 275 kts
2026-05-05 17:16 63.48829 9.22299 9842 ft 274 kts
2026-05-05 17:16 63.50727 9.22624 9358 ft 272 kts
2026-05-05 17:17 63.52603 9.22959 8887 ft 270 kts
2026-05-05 17:17 63.54472 9.23292 8411 ft 267 kts
2026-05-05 17:17 63.56310 9.23620 8027 ft 259 kts
2026-05-05 17:17 63.58048 9.23943 7632 ft 243 kts
2026-05-05 17:18 63.59711 9.24247 7238 ft 237 kts
2026-05-05 17:18 63.60798 9.24440 6982 ft 236 kts 360°
2026-05-05 17:18 63.62430 9.24729 6594 ft 235 kts 360°
2026-05-05 17:18 63.64580 9.25107 6062 ft 233 kts 360°
2026-05-05 17:19 63.66194 9.25397 5666 ft 232 kts 360°
2026-05-05 17:19 63.67797 9.25689 5269 ft 230 kts 360°
2026-05-05 17:19 63.68872 9.25881 4997 ft 229 kts 360°
2026-05-05 17:19 63.70970 9.26267 4475 ft 227 kts 360°
2026-05-05 17:20 63.72033 9.26456 4196 ft 227 kts 360°
2026-05-05 17:20 63.73554 9.26738 3797 ft 218 kts 360°
2026-05-05 17:20 63.75053 9.27012 3405 ft 214 kts 359°
2026-05-05 17:20 63.76524 9.27283 3069 ft 210 kts 359°
2026-05-05 17:21 63.77985 9.27557 3030 ft 211 kts
2026-05-05 17:21 63.79422 9.28309 3000 ft 213 kts 20°
2026-05-05 17:21 63.80609 9.30327 3010 ft 218 kts 47°
2026-05-05 17:22 63.82098 9.36287 3009 ft 209 kts 60°
2026-05-05 17:22 63.82725 9.39169 3012 ft 201 kts 61°
2026-05-05 17:22 63.83115 9.42205 2987 ft 202 kts 88°
2026-05-05 17:22 63.82663 9.45107 2992 ft 198 kts 135°
2026-05-05 17:23 63.81569 9.46959 2846 ft 197 kts 154°
2026-05-05 17:23 63.80398 9.48522 2441 ft 192 kts 153°
2026-05-05 17:23 63.79255 9.50075 2044 ft 185 kts 155°
2026-05-05 17:23 63.78189 9.51336 1639 ft 162 kts 160°
2026-05-05 17:24 63.77210 9.52393 1433 ft 154 kts 160°
2026-05-05 17:24 63.76246 9.53436 1250 ft 153 kts 159°
2026-05-05 17:24 63.75290 9.54459 1007 ft 151 kts 160°
2026-05-05 17:24 63.74358 9.55511 783 ft 148 kts 159°
2026-05-05 17:25 63.73445 9.56538 562 ft 145 kts 161°
2026-05-05 17:25 63.72845 9.57194 423 ft 144 kts 161°
2026-05-05 17:25 63.71663 9.58467 164 ft 142 kts 162°
2026-05-05 17:25 63.70790 9.59428 38 ft 129 kts 161°
2026-05-05 17:26 63.70154 9.60115 38 ft 73 kts 153°
2026-05-05 17:26 63.69813 9.60490 41 ft 50 kts 154°
2026-05-05 17:26 63.69603 9.60719 41 ft 17 kts 153°
2026-05-05 17:26 63.69561 9.60879 40 ft 12 kts 96°
2026-05-05 17:27 63.69562 9.61104 43 ft 16 kts 88°
2026-05-05 17:27 63.69600 9.61258 43 ft 10 kts 26°
2026-05-05 17:27 63.69667 9.61280 43 ft 10 kts
2026-05-05 17:27 63.69743 9.61299 43 ft 12 kts
2026-05-05 17:28 63.69824 9.61322 43 ft 9 kts 11°
2026-05-05 17:28 63.69851 9.61376 42 ft 7 kts 62°
2026-05-05 17:28 63.69854 9.61519 43 ft 11 kts 96°
2026-05-05 17:28 63.69833 9.61592 42 ft 7 kts 148°
2026-05-05 17:29 63.69788 9.61594 43 ft 6 kts 187°
2026-05-05 17:29 63.69756 9.61567 42 ft 3 kts 226°
2026-05-05 17:29 63.69754 9.61528 43 ft 2 kts 277°
2026-05-05 17:29 63.69755 9.61527 43 ft 0 kts 277°